UZB767 EDDF-LOWS

Flight info

Callsign UZB767
Flight time 0h 43m
Altitude 29000
Route CINDY8S/18 CINDY Z74 HAREM DCT ASLEP DCT TAKUT DCT DINKU L603 OLETU T702 BADIT BADIT2R
Aircraft A320/M-SDE3FGHIRWY/LB1

Departure

Time 2026-05-04 18:53
Airport Frankfurt Main Airport (EDDF)

Arrival

Time 2026-05-04 19:36
Airport Salzburg Airport (LOWS)
Time Latitude Longitude Altitude Speed Heading
2026-05-04 18:15 50.04951 8.57790 364 ft 0 kts 20°
2026-05-04 18:35 50.04938 8.57782 364 ft 4 kts 20°
2026-05-04 18:36 50.04913 8.57768 364 ft 4 kts 20°
2026-05-04 18:36 50.04893 8.57756 360 ft 4 kts 32°
2026-05-04 18:36 50.04879 8.57730 363 ft 4 kts 96°
2026-05-04 18:36 50.04887 8.57694 362 ft 4 kts 113°
2026-05-04 18:37 50.04892 8.57677 362 ft 0 kts 113°
2026-05-04 18:40 50.04890 8.57686 357 ft 6 kts 109°
2026-05-04 18:40 50.04867 8.57777 359 ft 9 kts 116°
2026-05-04 18:40 50.04841 8.57855 360 ft 8 kts 123°
2026-05-04 18:40 50.04802 8.57901 358 ft 7 kts 153°
2026-05-04 18:41 50.04760 8.57924 358 ft 6 kts 176°
2026-05-04 18:41 50.04693 8.57841 358 ft 21 kts 248°
2026-05-04 18:41 50.04627 8.57556 362 ft 33 kts 250°
2026-05-04 18:41 50.04548 8.57221 359 ft 31 kts 249°
2026-05-04 18:42 50.04472 8.56908 364 ft 31 kts 250°
2026-05-04 18:42 50.04397 8.56593 361 ft 31 kts 249°
2026-05-04 18:42 50.04336 8.56341 362 ft 22 kts 250°
2026-05-04 18:42 50.04280 8.56103 358 ft 25 kts 249°
2026-05-04 18:43 50.04217 8.55845 356 ft 27 kts 250°
2026-05-04 18:43 50.04151 8.55564 357 ft 29 kts 249°
2026-05-04 18:43 50.04084 8.55286 355 ft 22 kts 250°
2026-05-04 18:43 50.04030 8.55051 356 ft 24 kts 250°
2026-05-04 18:44 50.03966 8.54798 358 ft 27 kts 249°
2026-05-04 18:44 50.03922 8.54609 354 ft 28 kts 250°
2026-05-04 18:44 50.03826 8.54299 353 ft 22 kts 234°
2026-05-04 18:44 50.03764 8.54068 353 ft 24 kts 251°
2026-05-04 18:45 50.03702 8.53809 351 ft 27 kts 250°
2026-05-04 18:45 50.03632 8.53531 340 ft 29 kts 247°
2026-05-04 18:45 50.03560 8.53233 338 ft 25 kts 249°
2026-05-04 18:45 50.03512 8.53034 335 ft 19 kts 249°
2026-05-04 18:46 50.03492 8.52948 334 ft 7 kts 249°
2026-05-04 18:46 50.03475 8.52883 335 ft 6 kts 246°
2026-05-04 18:46 50.03460 8.52833 336 ft 4 kts 246°
2026-05-04 18:46 50.03449 8.52793 336 ft 4 kts 246°
2026-05-04 18:47 50.03439 8.52754 333 ft 4 kts 249°
2026-05-04 18:47 50.03435 8.52738 333 ft 0 kts 249°
2026-05-04 18:48 50.03435 8.52737 333 ft 0 kts 249°
2026-05-04 18:48 50.03409 8.52638 334 ft 17 kts 242°
2026-05-04 18:49 50.03364 8.52596 335 ft 4 kts 189°
2026-05-04 18:49 50.03338 8.52595 336 ft 3 kts 178°
2026-05-04 18:49 50.03325 8.52595 334 ft 0 kts 178°
2026-05-04 18:52 50.03292 8.52597 332 ft 25 kts 179°
2026-05-04 18:52 50.02831 8.52599 335 ft 103 kts 180°
2026-05-04 18:52 50.01901 8.52608 337 ft 161 kts 180°
2026-05-04 18:52 50.00721 8.52638 758 ft 175 kts 179°
2026-05-04 18:53 49.99509 8.52661 1528 ft 174 kts 180°
2026-05-04 18:53 49.98247 8.52664 2028 ft 191 kts 179°
2026-05-04 18:53 49.96893 8.53164 2366 ft 214 kts 150°
2026-05-04 18:53 49.95815 8.54886 2776 ft 234 kts 119°
2026-05-04 18:54 49.95021 8.57104 3579 ft 238 kts 119°
2026-05-04 18:54 49.94279 8.59385 4042 ft 237 kts 108°
2026-05-04 18:54 49.94001 8.61969 4648 ft 256 kts 95°
2026-05-04 18:54 49.93882 8.64805 5354 ft 268 kts 95°
2026-05-04 18:55 49.93578 8.67686 6242 ft 272 kts 111°
2026-05-04 18:55 49.91312 8.72253 7995 ft 273 kts 148°
2026-05-04 18:55 49.89746 8.73963 8909 ft 277 kts 147°
2026-05-04 18:56 49.88334 8.76041 9804 ft 285 kts 132°
2026-05-04 18:56 49.87237 8.78697 10358 ft 304 kts 123°
2026-05-04 18:56 49.86158 8.81657 10729 ft 324 kts 122°
2026-05-04 18:56 49.85046 8.84756 11391 ft 332 kts 122°
2026-05-04 18:57 49.83919 8.87910 12181 ft 337 kts 122°
2026-05-04 18:57 49.82770 8.91110 12977 ft 341 kts 122°
2026-05-04 18:57 49.81606 8.94338 13745 ft 346 kts 122°
2026-05-04 18:57 49.80425 8.97589 14438 ft 350 kts 122°
2026-05-04 18:58 49.79219 9.00888 15128 ft 353 kts 122°
2026-05-04 18:58 49.78002 9.04220 15825 ft 357 kts 123°
2026-05-04 18:58 49.76787 9.07589 16498 ft 361 kts 119°
2026-05-04 18:58 49.75867 9.11236 17178 ft 368 kts 108°
2026-05-04 18:59 49.75224 9.15100 17849 ft 371 kts 110°
2026-05-04 18:59 49.74236 9.18776 18474 ft 372 kts 121°
2026-05-04 18:59 49.72807 9.22095 19061 ft 371 kts 133°
2026-05-04 18:59 49.71106 9.25109 19650 ft 374 kts 134°
2026-05-04 19:00 49.69382 9.28138 20252 ft 376 kts 134°
2026-05-04 19:00 49.67650 9.31183 20840 ft 379 kts 135°
2026-05-04 19:00 49.65898 9.34259 21425 ft 383 kts 135°
2026-05-04 19:00 49.64135 9.37360 22011 ft 386 kts 135°
2026-05-04 19:01 49.62482 9.40655 22580 ft 393 kts 126°
2026-05-04 19:01 49.61214 9.44430 23167 ft 401 kts 115°
2026-05-04 19:01 49.60307 9.48540 23678 ft 406 kts 111°
2026-05-04 19:01 49.59425 9.52699 24136 ft 410 kts 111°
2026-05-04 19:02 49.58532 9.56876 24583 ft 413 kts 112°
2026-05-04 19:02 49.57624 9.61094 25027 ft 416 kts 112°
2026-05-04 19:02 49.56706 9.65336 25468 ft 419 kts 112°
2026-05-04 19:02 49.55779 9.69604 25868 ft 422 kts 112°
2026-05-04 19:03 49.54855 9.73848 26261 ft 425 kts 112°
2026-05-04 19:03 49.53906 9.78204 26684 ft 428 kts 112°
2026-05-04 19:03 49.52765 9.82445 27093 ft 426 kts 121°
2026-05-04 19:03 49.51219 9.86308 27491 ft 424 kts 131°
2026-05-04 19:04 49.49396 9.89804 27863 ft 424 kts 133°
2026-05-04 19:04 49.47501 9.93383 28267 ft 427 kts 133°
2026-05-04 19:04 49.45649 9.96888 28653 ft 429 kts 133°
2026-05-04 19:04 49.43761 10.00461 28922 ft 431 kts 133°
2026-05-04 19:05 49.41867 10.04047 28970 ft 418 kts 133°
2026-05-04 19:05 49.40069 10.07450 28974 ft 404 kts 133°
2026-05-04 19:05 49.36580 10.14016 28979 ft 398 kts 134°
2026-05-04 19:06 49.33080 10.20585 28983 ft 397 kts 134°
2026-05-04 19:06 49.29587 10.27138 28970 ft 397 kts 133°
2026-05-04 19:07 49.26080 10.33685 28984 ft 398 kts 133°
2026-05-04 19:07 49.22419 10.40091 28984 ft 395 kts 140°
2026-05-04 19:08 49.18478 10.45973 28993 ft 395 kts 140°
2026-05-04 19:08 49.14561 10.51775 28996 ft 395 kts 140°
2026-05-04 19:09 49.10622 10.57617 28991 ft 395 kts 140°
2026-05-04 19:09 49.06684 10.63453 28967 ft 395 kts 139°
2026-05-04 19:10 49.02739 10.69270 28965 ft 395 kts 139°
2026-05-04 19:10 48.99426 10.74131 28975 ft 394 kts 139°
2026-05-04 19:11 48.95478 10.79917 28972 ft 394 kts 139°
2026-05-04 19:11 48.91533 10.85688 28966 ft 393 kts 139°
2026-05-04 19:12 48.85670 10.94277 28519 ft 383 kts 139°
2026-05-04 19:12 48.83761 10.97073 28081 ft 379 kts 140°
2026-05-04 19:13 48.81871 10.99832 27592 ft 377 kts 139°
2026-05-04 19:13 48.79980 11.02586 27097 ft 376 kts 139°
2026-05-04 19:13 48.78097 11.05323 26635 ft 375 kts 139°
2026-05-04 19:13 48.76219 11.08050 26174 ft 372 kts 139°
2026-05-04 19:14 48.74350 11.10755 25730 ft 370 kts 139°
2026-05-04 19:14 48.72494 11.13440 25285 ft 368 kts 139°
2026-05-04 19:14 48.70652 11.16100 24854 ft 365 kts 139°
2026-05-04 19:14 48.68822 11.18741 24429 ft 362 kts 139°
2026-05-04 19:15 48.66998 11.21369 24007 ft 360 kts 139°
2026-05-04 19:15 48.65199 11.23962 23596 ft 357 kts 139°
2026-05-04 19:15 48.63557 11.26782 23116 ft 358 kts 130°
2026-05-04 19:15 48.62073 11.29795 22631 ft 356 kts 130°
2026-05-04 19:16 48.60594 11.32776 22147 ft 354 kts 130°
2026-05-04 19:16 48.59103 11.35763 21666 ft 353 kts 130°
2026-05-04 19:16 48.57637 11.38700 21210 ft 352 kts 130°
2026-05-04 19:16 48.56170 11.41648 20752 ft 350 kts 130°
2026-05-04 19:17 48.54706 11.44585 20296 ft 349 kts 130°
2026-05-04 19:17 48.53253 11.47496 19985 ft 345 kts 130°
2026-05-04 19:17 48.51816 11.50374 19784 ft 342 kts 130°
2026-05-04 19:17 48.50385 11.53230 19546 ft 340 kts 130°
2026-05-04 19:18 48.48959 11.56065 19300 ft 339 kts 130°
2026-05-04 19:18 48.47547 11.58895 19062 ft 338 kts 128°
2026-05-04 19:18 48.46381 11.61979 18826 ft 341 kts 117°
2026-05-04 19:18 48.45548 11.65332 18590 ft 341 kts 112°
2026-05-04 19:19 48.44750 11.68690 18359 ft 340 kts 113°
2026-05-04 19:19 48.43951 11.72026 18102 ft 339 kts 112°
2026-05-04 19:19 48.43159 11.75309 17839 ft 337 kts 112°
2026-05-04 19:19 48.42358 11.78615 17571 ft 335 kts 112°
2026-05-04 19:20 48.41548 11.81951 17301 ft 334 kts 112°
2026-05-04 19:20 48.40763 11.85177 17045 ft 332 kts 113°
2026-05-04 19:20 48.39972 11.88427 16782 ft 330 kts 113°
2026-05-04 19:20 48.39184 11.91666 16522 ft 329 kts 113°
2026-05-04 19:21 48.38400 11.94892 16276 ft 327 kts 113°
2026-05-04 19:21 48.37623 11.98093 16019 ft 325 kts 113°
2026-05-04 19:21 48.36837 12.01328 15764 ft 324 kts 113°
2026-05-04 19:21 48.36066 12.04498 15514 ft 322 kts 113°
2026-05-04 19:22 48.35299 12.07646 15270 ft 321 kts 113°
2026-05-04 19:22 48.34543 12.10739 14968 ft 318 kts 113°
2026-05-04 19:22 48.33779 12.13850 14609 ft 317 kts 114°
2026-05-04 19:22 48.33018 12.16941 14273 ft 315 kts 114°
2026-05-04 19:23 48.32246 12.20088 13950 ft 313 kts 114°
2026-05-04 19:23 48.31507 12.23085 13626 ft 312 kts 115°
2026-05-04 19:23 48.30754 12.26127 13256 ft 310 kts 115°
2026-05-04 19:23 48.30005 12.29156 12897 ft 308 kts 114°
2026-05-04 19:24 48.29261 12.32163 12546 ft 306 kts 114°
2026-05-04 19:24 48.28521 12.35147 12191 ft 304 kts 114°
2026-05-04 19:24 48.27790 12.38091 11843 ft 302 kts 114°
2026-05-04 19:24 48.27058 12.41037 11493 ft 301 kts 114°
2026-05-04 19:25 48.26329 12.43969 11136 ft 299 kts 114°
2026-05-04 19:25 48.25601 12.46881 10783 ft 297 kts 114°
2026-05-04 19:25 48.24880 12.49770 10435 ft 295 kts 114°
2026-05-04 19:25 48.24160 12.52649 10090 ft 293 kts 115°
2026-05-04 19:26 48.23144 12.55232 9747 ft 285 kts 135°
2026-05-04 19:26 48.21774 12.57351 9349 ft 282 kts 138°
2026-05-04 19:26 48.20390 12.59427 8944 ft 281 kts 138°
2026-05-04 19:26 48.19002 12.61493 8545 ft 279 kts 138°
2026-05-04 19:27 48.17631 12.63531 8146 ft 278 kts 137°
2026-05-04 19:27 48.16264 12.65563 7748 ft 276 kts 137°
2026-05-04 19:27 48.14899 12.67590 7346 ft 275 kts 137°
2026-05-04 19:27 48.13544 12.69599 6946 ft 273 kts 137°
2026-05-04 19:28 48.12200 12.71596 6568 ft 272 kts 136°
2026-05-04 19:28 48.10863 12.73581 6170 ft 270 kts 136°
2026-05-04 19:28 48.09532 12.75559 5762 ft 269 kts 136°
2026-05-04 19:28 48.08206 12.77526 5339 ft 268 kts 135°
2026-05-04 19:29 48.06881 12.79487 4931 ft 267 kts 135°
2026-05-04 19:29 48.05583 12.81401 4756 ft 256 kts 135°
2026-05-04 19:29 48.04350 12.83219 4631 ft 244 kts 135°
2026-05-04 19:29 48.03172 12.84960 4501 ft 233 kts 135°
2026-05-04 19:30 48.01963 12.86464 4362 ft 222 kts 156°
2026-05-04 19:30 48.00538 12.87016 4243 ft 202 kts 165°
2026-05-04 19:30 47.99297 12.87700 4139 ft 180 kts 156°
2026-05-04 19:30 47.98232 12.88386 4050 ft 157 kts 155°
2026-05-04 19:31 47.97264 12.89007 3980 ft 148 kts 155°
2026-05-04 19:31 47.96330 12.89605 3970 ft 145 kts 156°
2026-05-04 19:31 47.95404 12.90195 3970 ft 144 kts 156°
2026-05-04 19:31 47.94486 12.90780 3969 ft 144 kts 155°
2026-05-04 19:32 47.93568 12.91365 3970 ft 144 kts 155°
2026-05-04 19:32 47.92647 12.91951 3905 ft 144 kts 155°
2026-05-04 19:32 47.91726 12.92536 3774 ft 144 kts 157°
2026-05-04 19:32 47.90808 12.93119 3601 ft 144 kts 156°
2026-05-04 19:33 47.89888 12.93704 3432 ft 144 kts 156°
2026-05-04 19:33 47.88967 12.94289 3249 ft 144 kts 156°
2026-05-04 19:33 47.88049 12.94872 3070 ft 143 kts 155°
2026-05-04 19:33 47.87133 12.95453 2871 ft 143 kts 155°
2026-05-04 19:34 47.86215 12.96035 2689 ft 143 kts 156°
2026-05-04 19:34 47.85295 12.96618 2503 ft 144 kts 156°
2026-05-04 19:34 47.84377 12.97200 2319 ft 144 kts 156°
2026-05-04 19:34 47.83457 12.97783 2129 ft 143 kts 156°
2026-05-04 19:35 47.82537 12.98366 1941 ft 143 kts 156°
2026-05-04 19:35 47.81619 12.98947 1744 ft 143 kts 156°
2026-05-04 19:35 47.80704 12.99528 1563 ft 143 kts 156°
2026-05-04 19:35 47.79805 13.00099 1430 ft 132 kts 158°
2026-05-04 19:36 47.79048 13.00576 1421 ft 102 kts 157°
2026-05-04 19:36 47.78551 13.00887 1422 ft 53 kts 157°
2026-05-04 19:36 47.78342 13.01018 1421 ft 25 kts 157°
2026-05-04 19:36 47.78219 13.01060 1418 ft 13 kts 206°
2026-05-04 19:37 47.78183 13.00950 1421 ft 11 kts 265°
2026-05-04 19:37 47.78207 13.00860 1424 ft 9 kts 316°
2026-05-04 19:37 47.78278 13.00797 1421 ft 14 kts 335°
2026-05-04 19:37 47.78367 13.00736 1421 ft 15 kts 336°
2026-05-04 19:38 47.78466 13.00670 1420 ft 16 kts 336°
2026-05-04 19:38 47.78577 13.00611 1420 ft 18 kts 339°
2026-05-04 19:38 47.78693 13.00531 1420 ft 19 kts 338°
2026-05-04 19:38 47.78823 13.00453 1422 ft 21 kts 336°
2026-05-04 19:39 47.78959 13.00365 1420 ft 22 kts 336°
2026-05-04 19:39 47.79104 13.00272 1420 ft 23 kts 337°
2026-05-04 19:39 47.79240 13.00186 1420 ft 21 kts 337°
2026-05-04 19:39 47.79342 13.00122 1420 ft 16 kts 337°
2026-05-04 19:40 47.79454 13.00052 1420 ft 18 kts 337°
2026-05-04 19:40 47.79548 12.99983 1420 ft 12 kts 314°
2026-05-04 19:40 47.79571 12.99977 1420 ft 1 kts 109°
2026-05-04 19:40 47.79567 12.99979 1420 ft 0 kts 138°
2026-05-04 19:41 47.79507 13.00018 1420 ft 16 kts 155°
2026-05-04 19:41 47.79401 13.00083 1420 ft 17 kts 171°
2026-05-04 19:41 47.79332 12.99981 1422 ft 15 kts 244°
2026-05-04 19:41 47.79263 12.99961 1422 ft 8 kts 161°
2026-05-04 19:42 47.79242 13.00016 1422 ft 6 kts 103°
2026-05-04 19:42 47.79233 13.00069 1422 ft 5 kts 102°
2026-05-04 19:42 47.79232 13.00078 1422 ft 0 kts 102°
2026-05-04 19:43 47.79232 13.00086 1422 ft 0 kts 96°